Summit, Vermont
Current Conditions -  °F | °C
As of 12:15 PM on Saturday 20 Dec 2014 (Local Time) from KRUT Reporting Station
Clear Clear  
Wind Chill: 25°   Ceiling: Unl
Heat Index: 25°   Visibility: 10mi
Dew Point: 16°   Wind: 3mph
Humidity: 69%   Direction: 30°NNE
Pressure: 30.24"   Gusts: NA
Location:  43.437°N, 72.7883°W
Report Text: KRUT 201715Z 03003KT 10SM CLR M04/M09 A3024 RMK AO1
Loading
Personal Weather Stations






























Interactive Weather Map New forecast layout! Learn more

10-Day Weather Forecast

Advertisements
Track Severe Weather on mobile